Location: *
(35.2375°N, 88.6114°W)
Time: 00:37:27
(UTC+00:00)

Daily predictions for brighter satellites

Satellite Brightness Start Highest point End
(mag) Time Altitude Azimuth Time Altitude Azimuth Time Altitude Azimuth
Cosmos 1943 4.3 00:58:42 10° SW 01:04:11 52° WNW 01:09:44 10° N
OAO 2 Rocket 3.4 01:01:21 10° W 01:06:35 87° S 01:11:43 10° E
Cosmos 1933 Rocket 3.9 01:02:44 10° SSW 01:07:02 72° W 01:11:22 10° N
Meteor 1-27 Rocket 3.9 01:02:20 10° N 01:08:12 90° ENE 01:13:56 10° S
Resurs 01 Rocket 3.6 01:10:14 10° E 01:12:14 13° ENE 01:14:14 10° NE
Falcon 9 debris 3.7 01:09:52 10° NNW 01:13:11 43° NE 01:16:20 11° ESE
Cosmos 1703 Rocket 4.0 01:09:09 10° N 01:13:25 44° E 01:17:37 10° SSE
ARGOS 4.2 01:11:28 10° ESE 01:15:51 26° ENE 01:20:15 10° NNE
Cosmos 1943 Rocket 2.8 01:10:40 10° NNW 01:16:08 60° WSW 01:21:37 10° S
FALCON 9 DEB 3.6 01:16:23 10° NW 01:19:44 47° NE 01:22:35 13° ESE
Cosmos 2266 Rocket 3.9 01:23:03 10° N 01:29:09 87° E 01:35:10 10° S
FREGAT/IRIS 3.1 01:29:28 10° S 01:32:13 54° W 01:34:58 10° NNW
Cosmos 1656 Rocket 3.7 01:28:28 10° NNW 01:34:06 68° ENE 01:39:28 11° SSE
SPOT 3 Rocket 3.5 01:29:42 10° SSE 01:34:50 67° ENE 01:39:59 10° N
Abrixas rocket 3.7 01:34:47 10° W 01:37:38 35° NNW 01:40:30 10° NE
Cosmos 1869 Rocket 3.4 01:33:59 10° S 01:38:18 83° E 01:42:38 10° N
ADEOS Rocket 3.4 01:34:52 10° NNE 01:40:42 45° E 01:47:07 10° S
Okean 1 4.1 01:38:37 10° NNE 01:42:11 31° E 01:43:59 21° SE
Shenzhou-11 Module 1.7 01:40:41 10° WSW 01:43:29 86° NNW 01:45:24 18° ENE
Unknown 3.1 01:40:14 10° NW 01:43:44 87° NE 01:45:42 24° SE
CZ-2C R/B 4.0 01:42:57 19° ESE 01:44:57 25° ENE 01:48:47 10° NNE
Cosmos 1733 Rocket 4.0 01:43:45 20° ESE 01:45:22 26° E 01:48:56 10° NNE
GENESIS II 4.3 01:41:45 10° SSW 01:45:34 51° ESE 01:49:30 10° NE
CZ-3B R/B 4.3 01:17:42 10° W 01:49:35 55° SSW 01:55:28 20° ESE
Meteor 1-25 Rocket 4.4 01:45:22 10° S 01:51:02 80° W 01:56:49 10° N
CENTAUR R/B 4.0 01:43:14 10° NW 01:51:15 52° WSW 01:59:34 10° S
SL-08 RB Rocket 4.1 01:53:41 24° SE 01:55:55 43° ENE 02:00:13 10° N
Meteor 1-14 Rocket 4.3 01:51:43 10° S 01:57:42 87° E 02:03:41 10° N
ASTEX 1 4.3 01:54:17 10° NNE 01:58:27 27° E 01:59:09 26° ESE
Cosmos 2369 Rocket 4.2 01:55:58 10° NW 02:00:31 26° WSW 02:05:03 10° SSW
Cosmos 773 Rocket 3.9 01:58:52 10° NNW 02:04:02 86° ENE 02:07:27 22° SSE
SJ-6B 3.7 02:01:12 10° S 02:04:57 48° W 02:08:49 10° NNW
Cosmos 1553 Rocket 4.0 02:01:27 10° S 02:07:32 60° E 02:13:44 10° NNE
Cosmos 1244 Rocket 4.4 02:03:59 10° N 02:10:11 75° E 02:14:46 19° SSE
Meteor 1-19 Rocket 4.3 02:06:29 10° N 02:12:08 58° E 02:15:02 29° SSE
Cosmos 1602 4.0 02:10:38 10° SSW 02:14:26 67° W 02:18:14 10° N
Cosmos 2221 Rocket 3.4 02:10:20 10° N 02:14:46 84° E 02:16:52 31° S
Cosmos 44 3.1 02:10:34 10° NNW 02:14:56 60° ENE 02:15:59 45° ESE
ASTRO E2 2.9 02:12:45 10° WSW 02:16:36 48° S 02:16:54 47° SSE
Unknown 4.3 02:13:21 10° NNW 02:17:17 41° NE 02:18:06 36° ENE
Unknown 4.3 02:14:57 10° NNW 02:18:53 41° NE 02:19:37 37° ENE
Cosmos 1417 Rocket 4.3 02:12:46 10° S 02:18:54 75° E 02:25:01 10° N
H-2A R/B 2.2 02:15:47 18° S 02:19:39 71° WSW 02:24:39 10° NNW
Unknown 4.3 02:16:28 10° NNW 02:20:23 39° NE 02:21:04 36° ENE
Resurs 1-3 3.6 02:19:34 29° S 02:21:45 77° WSW 02:26:08 10° NNW
Unknown 4.3 02:18:04 10° NNW 02:21:59 39° NE 02:22:36 37° ENE
OAO 3 Rocket 3.0 02:18:30 10° W 02:23:21 84° S 02:24:45 46° E
USA 234 3.3 02:20:14 29° SSE 02:23:54 75° SW 02:30:29 10° NW
Unknown 4.2 02:21:22 10° NNW 02:25:20 42° NE 02:25:48 40° ENE
Unknown 4.2 02:23:01 10° NNW 02:27:00 43° NE 02:27:23 42° ENE
Unknown 4.1 02:24:39 10° NW 02:28:39 45° NE 02:28:59 44° NE
Cosmos 1898 Rocket 3.8 02:30:21 43° E 02:30:21 43° E 02:35:02 10° NNE
Cosmos 923 Rocket 4.3 02:25:04 10° N 02:30:15 49° ENE 02:31:04 45° E
Unknown 4.1 02:26:18 10° NW 02:30:19 46° NE 02:30:35 46° NE
S3M 3.9 02:26:47 20° S 02:31:22 74° E 02:37:37 10° N
COSMOS 2406 3.1 02:26:30 10° S 02:32:06 69° ESE 02:37:47 10° NNE
Unknown 3.9 02:32:52 10° NW 02:36:55 53° NE 02:36:55 53° NE
Cosmos 1538 Rocket 4.5 02:33:14 10° NNW 02:38:17 55° WSW 02:40:36 30° SSW
Unknown 3.9 02:34:31 10° NW 02:38:31 55° NE 02:38:31 55° NE
Unknown 3.9 02:36:13 10° NW 02:40:09 57° NNE 02:40:09 57° NNE
MetOp-A 4.2 02:39:22 36° S 02:41:36 73° WSW 02:46:58 10° NNW
CZ-2C R/B 2.6 02:36:28 10° NNE 02:41:39 55° E 02:41:42 55° ESE
Unknown 3.9 02:37:48 10° NW 02:41:42 58° NNE 02:41:42 58° NNE
BREEZE-M DEB (TANK) 4.1 02:39:58 10° NNW 02:42:37 26° NE 02:43:01 26° NE
Cosmos 1680 Rocket 3.8 02:37:34 10° N 02:42:38 48° ENE 02:42:42 48° ENE
Unknown 3.9 02:39:32 10° NW 02:43:22 60° NNE 02:43:22 60° NNE
Hubble Space Telescope 2.8 02:40:55 10° WSW 02:42:43 18° SW 02:42:43 18° SW
Unknown 3.9 02:42:50 10° NW 02:46:32 61° N 02:46:32 61° N
Geosat 4.4 02:47:12 45° ENE 02:47:16 45° ENE 02:52:03 10° NNW
Resurs 01 Rocket 2.3 02:47:04 38° SW 02:48:15 49° W 02:52:32 10° NNW
Starlink (trailer) 3.9 02:44:29 10° NW 02:48:07 61° N 02:48:07 61° N
Unknown 4.0 02:46:10 10° NW 02:49:45 61° N 02:49:45 61° N
Okean 3 3.8 02:46:25 10° NNW 02:50:32 60° W 02:50:48 58° WSW
OAO 2 Rocket 3.2 02:46:15 10° W 02:51:24 75° SSW 02:51:24 75° SSW
Unknown 4.0 02:47:47 10° NW 02:51:19 60° NNW 02:51:19 60° NNW
Cosmos 1745 Rocket 3.8 02:47:04 10° N 02:53:14 84° E 02:54:39 56° SSE
SJ 16-02 3.4 02:58:44 18° NNE 02:58:44 18° NNE 02:59:56 10° NNE
ERS-1 Rocket 3.9 02:58:30 35° NE 02:58:30 35° NE 03:02:10 10° N
Unknown 4.2 02:54:24 10° NW 02:57:40 54° NW 02:57:40 54° NW
Cosmos 2098 Rocket 4.1 02:54:23 10° N 02:57:50 42° NE 02:57:50 42° NE
Cosmos 44 Rocket 4.2 02:55:43 10° NNW 02:59:23 37° NNE 02:59:23 37° NNE
Unknown 4.3 02:56:07 10° NW 02:59:19 53° NW 02:59:19 53° NW
Unknown 4.4 02:57:47 10° NW 03:00:56 51° NW 03:00:56 51° NW
Aureole 3 Rocket 4.1 03:04:09 37° NNW 03:04:09 37° NNW 03:06:19 10° N
Unknown 4.5 02:59:25 10° NW 03:02:30 49° NW 03:02:30 49° NW
Meteor 2-4 Rocket 3.6 03:00:37 10° NNW 03:05:57 71° W 03:06:28 66° SW
SPOT 1/Viking Rocket 4.1 03:15:19 49° NNE 03:15:19 49° NNE 03:19:24 10° N
USA 245 4.4 03:17:53 51° NNW 03:17:53 51° NNW 03:21:50 10° NNW
Spot 2 Rocket 4.1 03:17:19 49° WSW 03:17:37 49° W 03:22:34 10° NNW
SL-08 ROCKET BODY 4.2 03:13:11 10° N 03:18:54 85° NNW 03:18:54 85° NNW
Meteor 1-11 Rocket 4.3 03:17:22 40° SW 03:19:16 59° W 03:25:09 10° N
Cosmos 1937 Rocket 4.0 03:21:16 52° N 03:21:16 52° N 03:25:18 10° NNE
CZ-2C R/B 4.4 03:24:01 26° WSW 03:24:42 28° W 03:28:46 10° NW
Cosmos 990 Rocket 4.4 03:25:00 59° WNW 03:25:00 59° WNW 03:30:02 10° N
Milstar 3 Cent rocket 4.1 03:06:09 10° W 03:29:03 67° S 03:32:30 52° SE
Cosmos 2082 Rocket 3.7 03:48:58 28° NNE 03:48:58 28° NNE 03:51:34 10° NNE
Cosmos 1833 Rocket 3.6 03:51:08 44° N 03:51:08 44° N 03:55:10 10° NNE
Terra 3.8 04:05:31 25° NNW 04:05:31 25° NNW 04:07:31 10° NNW
Cosmos 1697 Rocket 3.9 04:01:49 10° NNW 04:05:13 38° N 04:05:13 38° N
Milstar 3 4.2 03:50:38 10° W 04:09:55 58° SSW 04:10:29 58° S
FALCON 9 R/B 3.6 03:48:19 10° WSW 04:10:44 71° SSW 04:10:44 71° SSW
Cosmos 1980 Rocket 3.9 04:24:03 10° NNW 04:26:43 28° N 04:26:43 28° N
SJ 16-02 4.4 04:35:41 12° NW 04:35:41 12° NW 04:36:28 10° NW
Cosmos 2322 Rocket 4.4 05:12:04 10° N 05:13:53 20° N 05:13:53 20° N
Cosmos 2333 Rocket 4.3 06:49:12 10° N 06:51:23 22° N 06:51:23 22° N
USA 267 4.5 06:55:06 33° ENE 06:56:20 36° NE 07:02:11 10° NNW
Centaur D-1A AC-31 4.3 07:05:33 41° SE 07:05:33 41° SE 07:47:36 10° E
Centaur D-1A AC-31 4.3 07:05:32 41° SE 07:05:32 41° SE 07:47:36 10° E
CZ-2D R/B 4.1 07:11:21 10° NNE 07:13:45 25° NE 07:13:45 25° NE
SL-16 R/B 3.6 07:26:15 41° NNE 07:26:15 41° NNE 07:30:24 10° N
CZ-3 Stage 3 3.9 07:27:25 54° ESE 07:27:25 54° ESE 07:49:37 10° E
ADEOS II 4.4 07:24:30 10° NE 07:26:49 17° ENE 07:26:49 17° ENE
Cosmos 2227 Rocket 3.6 07:39:49 34° NE 07:39:49 34° NE 07:43:04 10° NNE
ATLAS 2AS CENTAUR R/B 3.7 07:45:31 10° NNW 07:52:47 46° NE 07:59:26 10° ESE
Cosmos 2297 Rocket 3.2 07:55:53 42° NNE 07:55:53 42° NNE 07:59:36 10° NNE
Cosmos 2219 Rocket 4.5 07:55:06 10° NNW 07:55:56 14° NNW 07:55:56 14° NNW
SeaSat 1 4.2 08:08:42 10° N 08:11:12 26° NNW 08:11:12 26° NNW
Cosmos 2237 Rocket 3.0 08:16:30 10° NNW 08:20:13 43° NNW 08:20:13 43° NNW
Resurs 1-4 Rocket 3.6 08:17:55 10° N 08:20:38 26° NNW 08:20:38 26° NNW
Cosmos 2016 Rocket 4.4 08:22:46 10° N 08:28:51 58° E 08:30:18 46° SE
Cosmos 2100 Rocket 4.0 08:23:05 10° N 08:29:07 80° NNW 08:29:07 80° NNW
SL-16 R/B 3.6 08:24:26 10° N 08:29:38 36° ENE 08:34:47 10° SE
Cosmos 1802 Rocket 3.9 08:27:23 10° N 08:33:34 78° E 08:34:07 72° SE
USA 267 4.2 08:42:21 30° WNW 08:42:21 30° WNW 08:45:32 10° NW
Cosmos 2082 3.8 08:40:39 64° NNW 08:40:39 64° NNW 08:45:49 10° NNE
Cosmos 2123 Rocket 4.0 08:39:33 66° SSE 08:40:22 76° E 08:46:37 10° N
Cosmos 1300 4.4 08:46:11 31° NNE 08:46:11 31° NNE 08:48:19 10° NNE
Cosmos 1850 Rocket 4.3 08:42:03 10° N 08:47:14 63° ENE 08:48:42 44° SE
Cosmos 1459 Rocket 4.0 08:45:10 10° NNW 08:50:45 58° WNW 08:50:45 58° WNW
CZ-2D R/B 4.0 08:52:31 10° NNW 08:55:05 18° NW 08:55:05 18° NW
Cosmos 1741 Rocket 4.1 08:51:45 10° NNW 08:57:05 76° ENE 08:59:11 38° SSE
NOSS 3-4 (A) 4.0 08:51:17 10° NNW 08:58:31 78° ENE 09:06:22 10° SE
NOSS 3-4 (C) 4.0 08:51:23 10° NNW 08:58:37 77° ENE 09:06:29 10° SE
Cosmos 2263 Rocket 4.0 08:55:19 14° SSE 08:58:57 25° ESE 09:03:31 10° NE
Spot 4 Rocket 4.2 08:58:49 10° N 09:03:39 55° WNW 09:03:39 55° WNW
Cosmos 1725 Rocket 3.9 08:59:15 10° N 09:05:28 89° W 09:08:23 34° S
Okean 3 Rocket 4.3 09:02:40 10° N 09:06:57 51° E 09:09:03 27° SE
ADEOS II 2.5 09:02:57 10° N 09:07:45 45° WNW 09:07:45 45° WNW
SL-16 R/B 4.4 09:11:21 14° WNW 09:11:21 14° WNW 09:12:31 10° NW
ARIANE 5 R/B 3.2 09:06:24 10° N 09:10:56 38° WNW 09:10:56 38° WNW
BREEZE-M DEB (TANK) 3.9 09:10:42 32° SSE 09:12:00 39° SE 09:21:17 10° ENE
ADEOS 4.2 09:09:05 10° NNE 09:14:12 53° E 09:17:09 24° SSE
SEDSat Delta rocket 4.2 09:17:53 45° SW 09:19:08 51° SSW 09:25:35 10° ESE
Cosmos 2227 Rocket 3.8 09:21:38 19° WNW 09:21:57 19° WNW 09:25:56 10° NNW
Cosmos 1864 Rocket 4.4 09:16:42 10° NNW 09:22:55 63° W 09:25:48 32° SSW
Cosmos 2227 4.4 09:21:26 31° S 09:24:07 67° ESE 09:29:42 10° NNE
Cosmos 1892 3.5 09:27:37 10° N 09:31:21 50° E 09:35:06 10° SSE
Cosmos 371 Rocket 3.3 09:30:00 36° S 09:31:59 82° ESE 09:36:53 10° NNE
Cosmos 1331 Rocket 4.2 09:32:37 42° WSW 09:33:54 52° WNW 09:39:05 10° N
Cosmos 1110 Rocket 4.4 09:34:44 39° W 09:35:49 44° WNW 09:40:51 10° N
Centaur D-1AR AC-36 3.8 09:35:33 12° S 09:36:47 13° SSE 09:39:41 10° ESE
Cosmos 2297 Rocket 4.1 09:37:42 13° WNW 09:38:37 14° NW 09:41:22 10° NNW
ATLAS 2AS CENTAUR R/B 3.3 09:37:00 10° NW 09:43:28 34° WSW 09:49:27 10° S
Cosmos 2221 4.1 09:40:58 10° SSE 09:44:56 35° E 09:48:55 10° NNE
CZ-2C R/B 4.1 09:42:07 10° NNW 09:45:19 25° WNW 09:45:19 25° WNW
Cosmos 2058 3.6 09:45:07 10° NNW 09:48:33 32° W 09:48:33 32° W
IDEFIX/ARIANE 42P 2.5 09:45:09 10° NNE 09:50:24 89° ESE 09:55:03 13° SSW
Meteor 2-10 Rocket 4.2 09:51:18 10° S 09:56:38 61° E 10:02:12 10° NNE
Cosmos 332 Rocket 3.8 09:56:51 24° SW 09:59:38 61° WNW 10:04:23 10° N
Cosmos-2242 4.2 10:02:05 22° W 10:02:34 23° WNW 10:05:58 10° NNW
Cosmos 1603 4.2 09:59:19 10° NNW 10:04:54 65° ENE 10:10:30 10° SSE
SL-8 R/B 3.7 10:01:59 24° SW 10:04:55 78° SE 10:09:45 10° NE
CZ-3 R/B 3.8 09:52:04 17° SW 10:10:08 43° S 10:17:33 10° ESE
Meteor 2-20 4.4 10:04:54 10° SSW 10:11:02 70° W 10:17:10 10° N
SL-16 R/B 3.0 10:08:51 10° NW 10:13:31 27° WSW 10:18:11 10° SSW
Cosmos 304 Rocket 3.7 10:10:21 10° SSW 10:15:08 89° W 10:19:59 10° NNE
H-2A R/B 3.1 10:14:01 10° N 10:17:56 38° WNW 10:20:50 16° SW
Cosmos 1455 2.8 10:17:10 18° SW 10:19:25 35° W 10:22:53 10° NNW
Cosmos 1464 Rocket 4.0 10:15:48 10° N 10:22:04 89° W 10:28:22 10° S
Timation 1 Rocket 4.4 10:17:48 10° SSW 10:23:48 86° ESE 10:29:50 10° NNE
Cosmos 1408 Rocket 4.0 10:20:43 10° NNW 10:24:53 39° W 10:29:01 10° SSW
Cosmos 1992 Rocket 4.0 10:26:32 10° SSW 10:31:45 84° WNW 10:37:01 10° NNE
Cosmos 2084 Rocket 3.6 10:27:45 11° SW 10:31:59 68° WNW 10:36:27 10° NNE
Cosmos 1743 Rocket 3.5 10:28:11 10° NNW 10:32:37 70° W 10:37:03 10° S
Cosmos 2151 4.4 10:32:11 10° NW 10:35:10 19° W 10:38:07 10° SW
Cosmos 921 Rocket 3.0 10:31:16 10° SSW 10:35:28 88° ESE 10:39:45 10° NNE
Lacrosse 5 rocket 3.8 10:34:05 10° SSE 10:36:43 18° ESE 10:39:28 10° ENE
Cosmos 2285 Rocket 4.1 10:34:57 10° NNW 10:41:14 61° WSW 10:47:32 10° S
Cosmos 1825 2.3 10:38:26 10° NNW 10:42:09 54° W 10:45:50 10° S
Cosmos 2263 Rocket 2.8 10:37:21 10° SW 10:42:36 38° WNW 10:47:54 10° N
Cosmos 1891 Rocket 4.5 10:37:14 10° NNW 10:43:08 60° W 10:49:05 10° S
CZ-2C R/B 2.4 10:43:19 10° N 10:47:47 56° WNW 10:52:18 10° SSW
ATLAS CENTAUR R/B 3.7 10:43:47 10° S 10:48:03 31° ESE 10:52:25 10° NE
Cosmos 1869 3.7 10:44:16 10° S 10:48:09 66° E 10:52:04 10° NNE
Meteor 2-3 Rocket 3.7 10:44:17 10° NNW 10:49:52 77° W 10:55:24 10° S
Cosmos 1805 Rocket 4.2 10:46:31 10° N 10:50:56 64° E 10:55:20 10° SSE
Okean O Rocket 3.0 10:48:49 10° NNE 10:53:00 43° E 10:57:12 10° S
Meteor 2-2 Rocket 4.3 10:51:50 10° SSW 10:57:25 69° W 11:03:04 10° N
